Time,TemperatureF,DewpointF,PressureIn,WindDirection,WindDirectionDegrees,WindSpeedMPH,WindSpeedGustMPH,Humidity,HourlyPrecipIn,Conditions,Clouds,dailyrainin,SoftwareType,DateUTC
2013-08-05 00:02:00,61.0,52.0,30.01,NW,318,0.0,0.0,71,0.00,,,0.00,,2013-08-05 04:02:00,
2013-08-05 00:12:00,60.0,51.0,30.01,NW,318,0.0,0.0,73,0.00,,,0.00,,2013-08-05 04:12:00,
2013-08-05 00:22:00,60.0,51.0,30.01,NW,318,0.0,0.0,73,0.00,,,0.00,,2013-08-05 04:22:00,
2013-08-05 00:32:00,60.0,50.0,30.02,NW,318,0.0,0.0,70,0.00,,,0.00,,2013-08-05 04:32:00,
2013-08-05 00:43:00,61.0,51.0,30.02,NW,318,0.0,0.0,69,0.00,,,0.00,,2013-08-05 04:43:00,
2013-08-05 01:02:00,60.0,51.0,30.02,NW,318,0.0,0.0,73,0.00,,,0.00,,2013-08-05 05:02:00,
2013-08-05 01:12:00,59.0,51.0,30.02,NW,318,0.0,0.0,75,0.00,,,0.00,,2013-08-05 05:12:00,
2013-08-05 01:32:00,58.0,51.0,30.02,NW,318,0.0,0.0,78,0.00,,,0.00,,2013-08-05 05:32:00,
2013-08-05 01:43:00,58.0,51.0,30.02,NW,318,0.0,0.0,78,0.00,,,0.00,,2013-08-05 05:43:00,
2013-08-05 02:02:00,58.0,52.0,30.02,NW,318,0.0,0.0,81,0.00,,,0.00,,2013-08-05 06:02:00,
2013-08-05 02:12:00,57.0,52.0,30.02,NW,318,0.0,0.0,82,0.00,,,0.00,,2013-08-05 06:12:00,
2013-08-05 02:32:00,57.0,52.0,30.02,NW,318,0.0,0.0,83,0.00,,,0.00,,2013-08-05 06:32:00,
2013-08-05 02:43:00,57.0,52.0,30.03,NW,318,0.0,0.0,84,0.00,,,0.00,,2013-08-05 06:43:00,
2013-08-05 03:02:00,56.0,51.0,30.03,NW,318,0.0,0.0,84,0.00,,,0.00,,2013-08-05 07:02:00,
2013-08-05 03:12:00,56.0,52.0,30.03,NW,318,0.0,0.0,85,0.00,,,0.00,,2013-08-05 07:12:00,
2013-08-05 03:22:00,56.0,52.0,30.03,NW,318,0.0,0.0,85,0.00,,,0.00,,2013-08-05 07:22:00,
2013-08-05 03:32:00,56.0,52.0,30.03,NW,318,0.0,0.0,86,0.00,,,0.00,,2013-08-05 07:32:00,
2013-08-05 03:43:00,56.0,52.0,30.03,NW,318,0.0,0.0,87,0.00,,,0.00,,2013-08-05 07:43:00,
2013-08-05 04:02:00,55.0,52.0,30.04,NW,318,0.0,0.0,88,0.00,,,0.00,,2013-08-05 08:02:00,
2013-08-05 04:12:00,56.0,52.0,30.04,NW,318,0.0,0.0,87,0.00,,,0.00,,2013-08-05 08:12:00,
2013-08-05 04:34:00,56.0,52.0,30.04,NW,318,0.0,0.0,87,0.00,,,0.00,,2013-08-05 08:34:00,
2013-08-05 05:07:00,56.0,52.0,30.04,NW,318,0.0,0.0,86,0.00,,,0.00,,2013-08-05 09:07:00,
2013-08-05 05:19:00,56.0,51.0,30.05,NW,318,0.0,0.0,84,0.00,,,0.00,,2013-08-05 09:19:00,
2013-08-05 05:40:00,57.0,52.0,30.05,NW,318,0.0,0.0,82,0.00,,,0.00,,2013-08-05 09:40:00,
2013-08-05 05:48:00,57.0,51.0,30.05,NW,318,0.0,0.0,81,0.00,,,0.00,,2013-08-05 09:48:00,
2013-08-05 06:11:00,58.0,52.0,30.06,WNW,302,0.0,0.0,80,0.00,,,0.00,,2013-08-05 10:11:00,
2013-08-05 06:17:00,58.0,52.0,30.06,NW,311,0.0,0.0,79,0.00,,,0.00,,2013-08-05 10:17:00,
2013-08-05 06:53:00,58.0,52.0,30.07,West,278,0.0,0.0,80,0.00,,,0.00,,2013-08-05 10:53:00,
2013-08-05 07:14:00,58.0,52.0,30.08,West,278,0.0,0.0,80,0.00,,,0.00,,2013-08-05 11:14:00,
2013-08-05 07:37:00,58.0,52.0,30.08,West,278,0.0,0.0,80,0.00,,,0.00,,2013-08-05 11:37:00,
2013-08-05 08:08:00,59.0,52.0,30.08,West,278,0.0,0.0,78,0.00,,,0.00,,2013-08-05 12:08:00,
2013-08-05 08:17:00,59.0,52.0,30.08,West,278,0.0,0.0,78,0.00,,,0.00,,2013-08-05 12:17:00,
2013-08-05 08:33:00,63.0,52.0,30.08,WNW,283,0.0,0.0,68,0.00,,,0.00,,2013-08-05 12:33:00,
2013-08-05 09:14:00,65.0,50.0,30.09,WNW,283,0.0,0.0,59,0.00,,,0.00,,2013-08-05 13:14:00,
2013-08-05 09:28:00,66.0,49.0,30.09,WNW,283,0.0,0.0,54,0.00,,,0.00,,2013-08-05 13:28:00,
2013-08-05 09:39:00,67.0,48.0,30.09,West,267,0.0,0.0,51,0.00,,,0.00,,2013-08-05 13:39:00,
2013-08-05 09:44:00,67.0,48.0,30.09,West,267,0.0,0.0,51,0.00,,,0.00,,2013-08-05 13:44:00,
2013-08-05 10:06:00,68.0,48.0,30.09,West,267,0.0,0.0,49,0.00,,,0.00,,2013-08-05 14:06:00,
2013-08-05 10:17:00,68.0,48.0,30.09,West,267,0.0,0.0,49,0.00,,,0.00,,2013-08-05 14:17:00,
2013-08-05 10:48:00,70.0,47.0,30.09,West,267,0.0,0.0,44,0.00,,,0.00,,2013-08-05 14:48:00,
2013-08-05 11:07:00,70.0,46.0,30.09,North,359,0.0,0.0,42,0.00,,,0.00,,2013-08-05 15:07:00,
2013-08-05 11:25:00,71.0,47.0,30.09,North,359,0.0,0.0,42,0.00,,,0.00,,2013-08-05 15:25:00,
2013-08-05 11:38:00,71.0,46.0,30.09,North,359,0.0,0.0,41,0.00,,,0.00,,2013-08-05 15:38:00,
2013-08-05 11:48:00,71.0,46.0,30.09,North,359,0.0,0.0,41,0.00,,,0.00,,2013-08-05 15:48:00,
2013-08-05 11:57:00,70.0,48.0,30.09,North,359,0.0,0.0,45,0.00,,,0.00,,2013-08-05 15:57:00,
2013-08-05 12:10:00,72.0,49.0,30.09,North,359,0.0,0.0,44,0.00,,,0.00,,2013-08-05 16:10:00,
2013-08-05 12:18:00,72.0,49.0,30.09,North,359,0.0,0.0,44,0.00,,,0.00,,2013-08-05 16:18:00,
2013-08-05 12:33:00,72.0,48.0,30.09,North,359,0.0,0.0,43,0.00,,,0.00,,2013-08-05 16:33:00,
2013-08-05 13:07:00,73.0,50.0,30.08,North,359,0.0,0.0,45,0.00,,,0.00,,2013-08-05 17:07:00,
2013-08-05 13:17:00,74.0,50.0,30.08,North,359,0.0,0.0,43,0.00,,,0.00,,2013-08-05 17:17:00,
2013-08-05 13:22:00,74.0,50.0,30.08,North,359,0.0,0.0,43,0.00,,,0.00,,2013-08-05 17:22:00,
2013-08-05 13:38:00,75.0,51.0,30.07,North,359,0.0,0.0,43,0.00,,,0.00,,2013-08-05 17:38:00,
2013-08-05 13:49:00,74.0,49.0,30.07,North,352,0.0,0.0,41,0.00,,,0.00,,2013-08-05 17:49:00,
2013-08-05 14:13:00,75.0,52.0,30.06,North,352,0.0,0.0,44,0.00,,,0.00,,2013-08-05 18:13:00,
2013-08-05 14:38:00,76.0,49.0,30.06,North,352,0.0,0.0,38,0.00,,,0.00,,2013-08-05 18:38:00,
2013-08-05 14:44:00,75.0,48.0,30.05,North,352,0.0,0.0,39,0.00,,,0.00,,2013-08-05 18:44:00,
2013-08-05 14:54:00,75.0,48.0,30.05,North,352,0.0,0.0,39,0.00,,,0.00,,2013-08-05 18:54:00,
2013-08-05 15:05:00,76.0,51.0,30.05,North,359,0.0,0.0,42,0.00,,,0.00,,2013-08-05 19:05:00,
2013-08-05 15:14:00,76.0,51.0,30.05,North,359,0.0,0.0,42,0.00,,,0.00,,2013-08-05 19:14:00,
2013-08-05 15:26:00,77.0,51.0,30.04,North,359,0.0,0.0,41,0.00,,,0.00,,2013-08-05 19:26:00,
2013-08-05 15:54:00,77.0,51.0,30.03,North,359,0.0,0.0,40,0.00,,,0.00,,2013-08-05 19:54:00,
2013-08-05 16:15:00,77.0,49.0,30.04,North,359,0.0,0.0,38,0.00,,,0.00,,2013-08-05 20:15:00,
2013-08-05 16:28:00,77.0,51.0,30.04,North,359,0.0,0.0,40,0.00,,,0.00,,2013-08-05 20:28:00,
2013-08-05 16:38:00,77.0,49.0,30.03,North,359,0.0,0.0,38,0.00,,,0.00,,2013-08-05 20:38:00,
2013-08-05 16:48:00,78.0,49.0,30.03,North,359,0.0,0.0,36,0.00,,,0.00,,2013-08-05 20:48:00,
2013-08-05 17:09:00,77.0,49.0,30.03,North,359,0.0,0.0,38,0.00,,,0.00,,2013-08-05 21:09:00,
2013-08-05 17:19:00,77.0,49.0,30.03,North,359,0.0,0.0,38,0.00,,,0.00,,2013-08-05 21:19:00,
2013-08-05 17:26:00,77.0,49.0,30.03,North,359,0.0,0.0,37,0.00,,,0.00,,2013-08-05 21:26:00,
2013-08-05 18:05:00,76.0,49.0,30.04,North,359,0.0,0.0,38,0.00,,,0.00,,2013-08-05 22:05:00,
2013-08-05 18:15:00,75.0,49.0,30.04,North,359,0.0,0.0,40,0.00,,,0.00,,2013-08-05 22:15:00,
2013-08-05 18:37:00,75.0,51.0,30.04,North,359,0.0,0.0,43,0.00,,,0.00,,2013-08-05 22:37:00,
2013-08-05 18:44:00,74.0,51.0,30.04,North,359,0.0,0.0,44,0.00,,,0.00,,2013-08-05 22:44:00,
2013-08-05 18:53:00,74.0,51.0,30.04,North,359,0.0,0.0,44,0.00,,,0.00,,2013-08-05 22:53:00,
2013-08-05 19:07:00,73.0,54.0,30.05,North,359,0.0,0.0,52,0.00,,,0.00,,2013-08-05 23:07:00,
2013-08-05 19:17:00,72.0,54.0,30.05,North,359,0.0,0.0,54,0.00,,,0.00,,2013-08-05 23:17:00,
2013-08-05 19:33:00,71.0,55.0,30.06,North,359,0.0,0.0,58,0.00,,,0.00,,2013-08-05 23:33:00,
2013-08-05 19:46:00,70.0,55.0,30.06,North,359,0.0,0.0,59,0.00,,,0.00,,2013-08-05 23:46:00,
2013-08-05 20:02:00,70.0,56.0,30.06,North,359,0.0,0.0,61,0.00,,,0.00,,2013-08-06 00:02:00,
2013-08-05 20:15:00,68.0,55.0,30.06,North,359,0.0,0.0,64,0.00,,,0.00,,2013-08-06 00:15:00,
2013-08-05 20:37:00,68.0,56.0,30.06,North,359,0.0,0.0,65,0.00,,,0.00,,2013-08-06 00:37:00,
2013-08-05 20:45:00,67.0,56.0,30.06,North,359,0.0,0.0,67,0.00,,,0.00,,2013-08-06 00:45:00,
2013-08-05 20:57:00,66.0,55.0,30.07,North,359,0.0,0.0,68,0.00,,,0.00,,2013-08-06 00:57:00,
2013-08-05 21:10:00,66.0,56.0,30.07,North,359,0.0,0.0,70,0.00,,,0.00,,2013-08-06 01:10:00,
2013-08-05 21:28:00,65.0,55.0,30.07,North,359,0.0,0.0,71,0.00,,,0.00,,2013-08-06 01:28:00,
2013-08-05 21:57:00,64.0,56.0,30.07,North,359,0.0,0.0,74,0.00,,,0.00,,2013-08-06 01:57:00,
2013-08-05 22:15:00,64.0,56.0,30.07,North,359,0.0,0.0,74,0.00,,,0.00,,2013-08-06 02:15:00,
2013-08-05 22:33:00,63.0,55.0,30.07,North,359,0.0,0.0,75,0.00,,,0.00,,2013-08-06 02:33:00,
2013-08-05 22:47:00,63.0,55.0,30.07,North,359,0.0,0.0,76,0.00,,,0.00,,2013-08-06 02:47:00,
2013-08-05 22:52:00,63.0,55.0,30.07,North,359,0.0,0.0,76,0.00,,,0.00,,2013-08-06 02:52:00,
2013-08-05 23:02:00,62.0,55.0,30.07,North,359,0.0,0.0,77,0.00,,,0.00,,2013-08-06 03:02:00,
2013-08-05 23:17:00,62.0,55.0,30.07,North,359,0.0,0.0,78,0.00,,,0.00,,2013-08-06 03:17:00,
2013-08-05 23:35:00,61.0,54.0,30.07,North,359,0.0,0.0,79,0.00,,,0.00,,2013-08-06 03:35:00,
2013-08-05 23:52:00,61.0,55.0,30.07,North,359,0.0,0.0,80,0.00,,,0.00,,2013-08-06 03:52:00,